Regional Weather Roundup
Issued by NWS

Home | Current Version | Previous Version | Graphics & Text | Print | Product List | Glossary On
Versions: 1 2 3 4 5 6 7 8 9 10 11 12 13 14 15 16 17 18 19 20 21 22 23 24 25 26 27 28 29 30 31 32 33 34 35 36 37 38 39 40 41 42 43 44 45 46 47 48 49 50
887
ASUS44 KFWD 232315
RWRTX
NORTH TEXAS HOURLY WEATHER ROUNDUP
NATIONAL WEATHER SERVICE FORT WORTH TX
600 PM CDT MON OCT 23 2017

NOTE: "FAIR" INDICATES FEW OR NO CLOUDS BELOW 12,000 FEET WITH NO
SIGNIFICANT WEATHER AND/OR OBSTRUCTIONS TO VISIBILITY.

TXZ118-119-240000-
DALLAS/FORT WORTH METROPLEX

CITY           SKY/WX    TMP DP  RH WIND       PRES   REMARKS
DFW AIRPORT    CLOUDY    81  45  28 W8        30.02F
DALLAS LOVE    MOCLDY    81  44  27 NW6       30.03S
FTW MEACHAM    PTCLDY    79  50  36 W6        30.04S
DAL-EXECUTIVE  CLEAR     79  47  32 W3        30.03F
FTW-ALLIANCE   CLOUDY    79  48  33 NW7       30.05R
FTW-NAS-JRB    PTCLDY    81  48  31 NW5       30.05
FTW-SPINKS     CLEAR     81  45  28 W6        30.06S
ARLINGTON      CLEAR     80  46  30 NW8       30.04F
GRAND PRAIRIE  CLEAR     81  43  26 MISG      30.05F
ADDISON        CLEAR     79  45  29 NW8       30.04S
MESQUITE       CLEAR     79  43  27 SW8       30.03F
LANCASTER      CLEAR     79  46  31 SW3       30.04F
$$

TXZ091>094-102>105-117-120-121-131>134-240000-
NORTH CENTRAL TEXAS

CITY           SKY/WX    TMP DP  RH WIND       PRES   REMARKS
SHRMAN/DENISON CLEAR     75  48  37 NW13      30.07R
GAINESVILLE    CLEAR     75  46  35 N9        30.09R
BOWIE          CLEAR     74  48  40 NW12      30.10R
BRIDGEPORT     CLOUDY    76  51  41 NW3       30.09R
DECATUR        CLOUDY    75  49  40 NW6       30.07R
DENTON         CLOUDY    77  50  38 NW8       30.05R
MCKINNEY       CLEAR     77  48  35 NW7       30.04R
BONHAM         CLEAR    N/A N/A N/A NW12      30.05R
GREENVILLE     CLEAR     79  43  27 W5        30.03R
ROCKWALL       CLEAR     77  47  35 W5        30.04R
TERRELL        CLEAR     78  41  26 W7        30.03F
WAXAHACHIE     CLEAR     80  47  32 W5        30.05F
CLEBURNE       CLEAR     79  48  34 N7        30.07S HAZE
GRANBURY       CLEAR     81  48  31 N3        30.06S
$$

TXZ083>090-098>101-113>116-127>130-139>142-154-155-240000-
WESTERN NORTH TEXAS

CITY           SKY/WX    TMP DP  RH WIND       PRES   REMARKS
WICHITA FALLS  PTCLDY    72  45  37 N17       30.12R
WF-KICKAPOO    CLEAR     73  46  37 N12G26    30.14R
VERNON         CLEAR     74  36  25 NE12G20   30.17R
ABILENE        SUNNY     77  45  32 N14       30.11R
ABILENE-DYESS  SUNNY     78  45  30 N13       30.10R
GRAHAM         CLOUDY    76  47  36 NW8       30.08R
BRECKENRIDGE   CLOUDY    81  45  28 N6        30.08S HAZE
CISCO          SUNNY     79  46  31 NE7       30.10S
EASTLAND       CLEAR     78  48  34 N6        30.08S
RANGER         CLEAR     78  48  34 N7        30.08S
MINERAL WELLS  CLOUDY    78  47  33 NW5       30.05S
STEPHENVILLE   CLEAR     81  43  26 N7        30.10R
COMANCHE       CLEAR     81  49  32 NE3       30.07F
BROWNWOOD      SUNNY     82  43  24 NE5       30.07R
COLEMAN        SUNNY     82  43  25 N8        30.08S
$$

TXZ143>147-156>162-174-175-240000-
CENTRAL TEXAS

CITY           SKY/WX    TMP DP  RH WIND       PRES   REMARKS
WACO           CLEAR     79  46  31 S9        30.04F
WACO-TSTC      CLEAR     81  43  26 SW5       30.05F
WACO-MCGREGOR  CLEAR     79  52  38 S8        30.05F
HILLSBORO      CLEAR     80  50  34 CALM      30.05S
MEXIA          CLEAR     76  46  33 SW6       30.05F
HEARNE         CLEAR     78  47  33 CALM      30.07R
CAMERON        CLEAR     79  46  31 CALM      30.06S
TEMPLE         CLEAR     79  47  32 S3        30.07
KILLEEN        CLEAR     79  47  31 CALM      30.05S
KILLEEN-SKYLRK CLEAR     79  50  36 CALM      30.06S
FORT HOOD      CLEAR     80  48  32 CALM      30.03R
GATESVILLE     CLEAR     81  46  30 CALM      30.08S
HAMILTON       CLEAR     80  48  31 NE3       30.08S
LAMPASAS       CLEAR     81  52  36 CALM      30.06S
$$

TXZ095>097-106>112-122>126-135>138-148>153-164>167-240000-
EAST TEXAS

CITY           SKY/WX    TMP DP  RH WIND       PRES   REMARKS
PARIS          CLEAR     75  47  36 NW8       30.03R
SULPHUR SPRNGS CLEAR     76  44  31 W9        30.04S
MOUNT PLEASANT CLEAR     75  46  36 W6        30.03S
GILMER         CLEAR     74  45  34 W3        30.02S
MINEOLA        CLEAR     75  46  35 CALM      30.02F
TYLER          CLEAR     75  43  31 W6        30.03F
LONGVIEW       CLEAR     75  45  34 SW7       30.01F
MARSHALL       CLEAR     75  40  28 SW3       30.03F
ATHENS         CLEAR     73  41  31 CALM      30.02F
PALESTINE      CLEAR     84  53  34 CALM      30.05F
JACKSONVILLE   CLEAR     76  44  31 SW3       30.06F
HENDERSON      CLEAR     75  44  32 SW3       30.04F
CENTER         CLEAR     78  51  37 CALM      30.04S
NACOGDOCHES    CLEAR     75  48  38 SW5       30.05S
LUFKIN         CLEAR     74  50  42 SW3       30.04F
$$

SUPPLEMENTAL OBSERVATIONS (NWS FORT WORTH AREA)

CITY           SKY/WX    TMP DP  RH WIND       PRES   REMARKS
DENISON DAM      N/A     75  50  41 NW21        N/A
CADDO GRASSLND   N/A     75  46  35 NW3         N/A
PAT MAYSE LAKE   N/A     75  39  27 W10         N/A
GREENVILLE       N/A     77  43  29 W6G16       N/A
CEDAR HILL       N/A     81  48  32 NW1         N/A
LBJ GRASSLAND    N/A     77  48  36 NW5         N/A
POSSUM KINGDOM   N/A     79  50  36 N6          N/A
GRANBURY         N/A     81  48  32 N5          N/A
COMANCHE         N/A     81  46  30 NE3G12      N/A
MCGREGOR         N/A     81  46  30 S3          N/A
TEMPLE           N/A     79  46  31 E3          N/A
LAKE LIMESTONE   N/A     79  43  27 W6          N/A
ATHENS           N/A     75  43  31 CALM        N/A
$$

SUPPLEMENTAL OBSERVATIONS (NWS NORMAN AREA)

CITY           SKY/WX    TMP DP  RH WIND       PRES   REMARKS
GOODLETT         N/A     73  38  27 N15       30.18R
ODELL            N/A     72  42  34 N14       30.18S
CROWELL          N/A     75  44  33 NE16      30.18R
KNOX CITY        N/A     74  42  31 NE15      30.17R
SEYMOUR          N/A     72  45  37 N15       30.15R
MILLERS CREEK    N/A     73  45  35 N10         N/A
$$

SUPPLEMENTAL OBSERVATIONS (NWS SAN ANGELO AREA)

CITY           SKY/WX    TMP DP  RH WIND       PRES   REMARKS
WEINERT          N/A     73  45  36 N16       30.16R
HASKELL          N/A     74  40  29 N16       30.15R
THROCKMORTON     N/A     74  46  36 N9        30.13R
STAMFORD         N/A     77  45  32 NE14      30.14R
CLYDE            N/A     76  48  36 N8        30.12S
HAMBY            N/A     79  46  31 VRB6        N/A
IVIE RESERVOIR   N/A     84  43  23 N6          N/A
COLORADO BEND    N/A     81  46  30 SE6         N/A
$$

SUPPLEMENTAL OBSERVATIONS (NWS SHREVEPORT AREA)

CITY           SKY/WX    TMP DP  RH WIND       PRES   REMARKS
CLARKSVILLE      N/A     73  43  33 W3          N/A
TEXARKANA        N/A     70  57  64 CALM        N/A
LINDEN           N/A     75  43  31 W3          N/A
CADDO LAKE       N/A     72  46  40 W1          N/A
GILMER           N/A     77  45  31 W2G10       N/A
HENDERSON        N/A     75  43  31 W3G12       N/A
LUFKIN           N/A     75  52  43 MISG        N/A
N SABINE NF      N/A     68  57  68 MISG        N/A
S SABINE NF      N/A     66  55  68 CALM        N/A
$$

SUPPLEMENTAL OBSERVATIONS ARE A COLLECTION OF AUTOMATED INSTRUMENTS
THAT ARE MAINTAINED BY A VARIETY OF FEDERAL AND STATE AGENCIES.
CERTAIN ELEMENTS...SUCH AS HUMIDITY VALUES AND SUSTAINED WIND
SPEEDS...MAY BE APPROXIMATED.





USA.gov is the U.S. government's official web portal to all federal, state and local government web resources and services.